Flag for U.S.A. Weather past 2 weeks in Warren, Michigan, U.S.A.

Now
68 °F

Mild.


Feels Like: 68 °F
Forecast: 65 / 89 °F
Wind: No wind

Location: Detroit City Airport

Current Time: Jul 22, 2014 at 7:50:37 AM

Latest Report: Jul 22, 2014 at 6:53 AM


Visibility: 10 mi

Pressure: 30.10 "Hg

Humidity: 76%

Dew point: 60 °F

Location of WarrenLocation

Historic Weather in Warren — Graph

°F

Warren temperature yesterday

Maximum temperature yesterday: 86 °F (at 3:53 PM)
Minimum temperature yesterday: 64 °F (at 4:53 AM)
Average temperature yesterday: 76 °F

Past Weeks' High & Low Weather Summary

 TemperatureHumidityPressure
High87 °F (Jul 7, 5:53 PM)90% (Jul 20, 5:53 AM)30.25 "Hg (Jul 20, 5:53 AM)
Low57 °F (Jul 16, 5:53 AM)29% (Jul 17, 3:53 PM)29.26 "Hg (Jul 13, 3:53 AM)
Average73 °F61%29.97 "Hg
* Reported Jul 7 6:53 AM — Jul 22 6:53 AM, Warren, Weather by CustomWeather, © 2014

Note: Actual official high and low records may vary slightly from our data, if they occured in-between our weather recording intervals... More about our weather records

Advertising

Warren weather history for previous 24 hours

 ConditionsComfort  
Time TempWeatherWind HumidityBarometerVisibility
6:53 AM
Jul 22
68 °FMild.No wind76%30.10 "Hg10 mi
5:53 AM67 °FClear.No wind76%30.09 "Hg10 mi
4:53 AM68 °FClear.No wind73%30.10 "Hg10 mi
3:53 AM70 °FClear.No wind68%30.09 "Hg10 mi
2:53 AM70 °FClear.No wind66%30.09 "Hg10 mi
1:53 AM71 °FClear.3 mph59%30.09 "Hg10 mi
12:53 AM72 °FClear.3 mph57%30.10 "Hg10 mi
11:53 PM
Jul 21
73 °FClear.3 mph53%30.10 "Hg10 mi
10:53 PM74 °FClear.3 mph50%30.12 "Hg10 mi
9:53 PM77 °FSunny.6 mph48%30.11 "Hg10 mi
8:53 PM80 °FSunny.7 mph42%30.10 "Hg10 mi
7:53 PM83 °FSunny.9 mph40%30.09 "Hg10 mi
6:53 PM85 °FSunny.7 mph36%30.09 "Hg10 mi
5:53 PM85 °FSunny.7 mph40%30.09 "Hg10 mi
4:53 PM85 °FSunny.6 mph43%30.10 "Hg10 mi
3:53 PM86 °FSunny.8 mph40%30.10 "Hg10 mi
2:53 PM85 °FPassing clouds.8 mph42%30.11 "Hg10 mi
1:53 PM84 °FPassing clouds.5 mph43%30.12 "Hg10 mi
12:53 PM84 °FSunny.6 mph45%30.13 "Hg10 mi
11:53 AM82 °FSunny.7 mph46%30.13 "Hg10 mi
10:53 AM80 °FSunny.3 mph49%30.13 "Hg10 mi
9:53 AM77 °FSunny.6 mph60%30.14 "Hg10 mi
8:53 AM74 °FSunny.No wind74%30.14 "Hg8 mi
7:53 AM70 °FSunny.No wind79%30.14 "Hg6 mi
Weather by CustomWeather, © 2014

See weather overviewHow to use our weather pages